This is the latest recevied weather packets stored in our database for station/object JO1YDG-13. If no packets are shown the sender has not sent any weather packets the latest 10 day(s).
| Time | Temp. | Humidity | Pressure | Rain* | Wind** | Luminosity | Snow |
|---|---|---|---|---|---|---|---|
| 1778122194 | 27.78° C | 42% | 983.6 hPa | 0 mm | - | - | - |
| 1778121894 | 27.78° C | 42% | 983.6 hPa | 0 mm | - | - | - |
| 1778121594 | 27.78° C | 42% | 983.6 hPa | 0 mm | - | - | - |
| 1778121294 | 27.78° C | 42% | 983.6 hPa | 0 mm | - | - | - |
| 1778120994 | 26.67° C | 43% | 983.6 hPa | 0 mm | - | - | - |
| 1778120694 | 27.22° C | 42% | 983.9 hPa | 0 mm | - | - | - |
| 1778120393 | 27.22° C | 43% | 983.9 hPa | 0 mm | - | - | - |
| 1778120094 | 26.67° C | 43% | 984.2 hPa | 0 mm | - | - | - |
| 1778119794 | 27.22° C | 42% | 984.2 hPa | 0 mm | - | - | - |
| 1778119494 | 26.67° C | 43% | 984.2 hPa | 0 mm | - | - | - |
| 1778119194 | 26.67° C | 44% | 984.3 hPa | 0 mm | - | - | - |
| 1778118894 | 26.67° C | 45% | 984.3 hPa | 0 mm | - | - | - |
| 1778118593 | 26.11° C | 44% | 984.7 hPa | 0 mm | - | - | - |
| 1778118293 | 25.56° C | 45% | 984.7 hPa | 0 mm | - | - | - |
| 1778117993 | 25.56° C | 44% | 984.8 hPa | 0 mm | - | - | - |
| 1778117695 | 25.56° C | 44% | 984.9 hPa | 0 mm | - | - | - |
| 1778117394 | 25.56° C | 44% | 984.9 hPa | 0 mm | - | - | - |
| 1778117094 | 25° C | 47% | 985.1 hPa | 0 mm | - | - | - |
| 1778116794 | 25° C | 47% | 985.1 hPa | 0 mm | - | - | - |
| 1778116494 | 25.56° C | 47% | 985.3 hPa | 0 mm | - | - | - |
| 1778116194 | 25° C | 48% | 985.3 hPa | 0 mm | - | - | - |
| 1778115894 | 25° C | 47% | 985.3 hPa | 0 mm | - | - | - |
| 1778115593 | 24.44° C | 49% | 985.5 hPa | 0 mm | - | - | - |
| 1778115293 | 24.44° C | 49% | 985.5 hPa | 0 mm | - | - | - |
| 1778114993 | 23.89° C | 50% | 985.6 hPa | 0 mm | - | - | - |
* Rain latest hour (hover to see other rain measurements)
** Current wind speed in m/s (hover to see current wind gust speed)